sat.trackr.live / text

‹ back to catalog

STARLINK-37804

NORAD 69302 · 2026-119G

PAYLOAD ACTIVE UNKNOWN

§ Identity

Operator
Country
US
Launch date
2026-05-30
Launch site
AFWTR
Launch vehicle
Mass (kg)
RCS (m²)

Purposes: comms

External: N2YO · Heavens-Above · Gunter

§ Orbital elements

Epoch: 2026-09-20T01:22:43.508064Z

Period
93.91 min
Inclination
97.2833°
Eccentricity
0.0001176
Mean motion
15.33449260 rev/d
Perigee alt
464.7 km
Apogee alt
466.3 km
Semi-major
6,843.7 km
B*
2.2459e-4
RAAN
287.7683°
Arg perigee
110.8187°
Mean anomaly
249.3182°
Rev number
1,859

§ Raw data

STARLINK-378041 69302U 26119G   26263.05744801  .00007183  00000+0  22459-3 0  99902 69302  97.2833 287.7683 0001176 110.8187 249.3182 15.33449260 18595

JSON: /api/v1/satellites/69302 · /tle

For live sub-satellite position, see the globe view (requires WebGL).

§ Visibility from observer

Set your observer location to see the next 7 days of passes ≥ 10°. The values pass through the URL so the page stays shareable.

No JS? Fill the form by hand. The geolocation button needs JavaScript.